Lid_Strength_Index
2 1 1 1 1 0 1 0 0 0 1 1 1 1 1 0 -0 -0 -1 -1 -1 -1 -1 -0 -0 -0 0 1 0 1 1 1 0 1 1 1 0 0 -0 -0 -0 -1 -1
3 2 1 2 1 1 1 1 0 0 0 0 0 0 0 0 -0 -0 -1 -1 -1 -1 -0 -0 -0 -0 1 0 0 0 1 1 0 3 2 5 3 1 0 0 -0 -0 -0
3 2 2 2 1 2 1 1 1 1 0 -0 -0 -0 -0 -0 1 0 0 -0 -0 -1 -0 -0 -0 -0 -0 1 0 0 1 2 1 1 2 5 5 3 1 1 0 -0 0
2 2 2 2 2 2 1 1 1 1 0 -0 0 0 1 2 1 -0 -0 0 -1 -0 -0 -0 -0 -0 -0 -1 0 -0 0 1 2 1 1 1 2 5 5 1 1 0 0
3 2 3 2 2 1 1 1 1 0 0 -0 -0 1 1 1 0 0 -0 -0 -1 -0 -0 -0 -0 0 -1 -0 -0 0 0 0 1 2 1 1 2 2 3 5 3 1 0
2 3 2 2 2 1 1 1 1 1 0 -0 -0 0 0 1 1 1 1 0 -0 -0 -0 -0 -0 -1 -0 -0 -0 0 -0 0 0 1 1 2 3 3 3 4 4 4 2
3 3 3 3 2 2 2 1 1 1 1 0 0 0 0 1 1 1 1 1 1 1 0 -0 -0 -0 -0 -0 -0 -0 -0 0 1 0 1 1 1 1 2 3 3 4 3
3 3 3 3 2 2 2 1 2 1 1 1 0 0 -0 1 1 1 1 1 0 0 -1 -0 -1 -0 -0 -0 -1 -0 -0 -0 0 0 0 0 1 0 1 2 3 5 4
4 3 3 3 2 2 2 1 1 1 1 1 0 0 0 0 0 0 -0 1 -0 0 -0 -0 -0 -0 -0 -0 -1 -0 -0 0 0 0 0 1 0 0 -1 1 1 4 6
4 3 3 3 2 2 1 1 1 1 1 1 0 1 0 0 0 0 0 0 -0 -0 -0 -0 -0 -0 -0 -0 -0 0 -0 1 1 0 0 0 0 1 -0 1 1 1 3
4 3 3 2 2 2 2 1 1 1 1 1 0 1 1 0 1 0 0 0 -0 -0 0 0 0 0 0 -0 0 0 1 1 1 1 1 1 1 1 1 1 1 2 2
4 3 3 2 2 2 2 2 1 1 1 1 1 1 0 0 0 1 0 0 1 -0 -0 0 0 0 0 0 0 1 1 1 1 1 1 1 1 1 1 1 1 2 1
4 3 3 3 3 2 2 2 1 1 1 1 1 1 1 1 1 1 0 0 -0 -0 -0 0 0 0 0 1 1 1 1 1 1 1 1 1 1 1 1 1 2 1 1
4 3 3 3 2 2 2 2 1 1 1 1 1 2 1 1 1 1 0 0 -0 0 0 0 0 0 1 1 1 1 1 1 1 1 0 1 1 2 1 2 2 1 2
4 4 3 3 3 2 2 1 1 1 1 1 1 2 1 1 1 1 0 0 0 0 0 0 0 0 1 1 1 1 1 1 1 1 1 0 1 2 2 1 1 2 2
4 4 3 3 3 2 2 1 1 1 1 1 1 1 1 1 1 1 1 0 1 1 0 1 1 1 1 6 5 2 1 0 1 1 1 0 2 3 6 5 4 2 2
4 4 3 3 2 2 1 2 1 1 1 1 1 2 1 2 1 1 1 1 1 0 1 1 1 1 0 6 6 6 1 0 1 1 1 1 1 1 1 5 6 6 6
3 3 3 2 2 1 1 1 1 1 1 1 1 1 1 1 1 1 1 1 1 1 1 1 1 1 1 6 7 6 -0 1 0 0 0 1 1 1 1 1 2 2 2
3 2 2 2 2 1 1 1 1 1 1 1 1 1 1 2 1 1 1 1 1 1 1 1 1 1 1 8 8 5 0 1 1 1 0 0 1 8 7 2 4 4 4
2 2 2 2 2 1 1 1 2 1 2 1 1 1 1 1 1 1 1 1 0 1 1 1 1 4 1 9 9 5 1 2 2 0 0 6 4 8 7 2 3 4 3
2 2 2 2 2 1 1 2 2 2 1 1 1 1 1 1 0 1 1 0 1 1 1 1 1 1 1 3 9 7 0 1 1 2 1 1 9 8 6 5 2 3 2
2 2 2 2 1 1 1 2 2 1 1 1 1 1 1 1 1 1 1 1 1 1 1 2 2 1 0 5 9 9 6 4 1 1 1 3 11 10 8 5 9 8 4
2 2 2 2 2 1 1 2 1 1 1 1 1 1 1 1 1 1 1 2 1 2 2 2 2 2 1 0 8 9 9 7 1 0 5 10 10 10 7 9 8 8 1
2 2 2 2 2 1 1 1 1 1 1 1 1 1 1 1 1 1 1 1 2 2 2 2 2 2 2 1 1 0 1 7 3 6 3 4 6 7 4 3 3 0 0
2 2 2 2 2 1 1 1 1 1 1 1 1 1 1 1 1 1 1 1 0 1 1 1 1 2 2 1 3 2 1 0 2 1 0 1 1 1 1 1 0 0 0
2 2 2 2 2 2 1 1 1 1 1 1 1 1 1 1 1 1 1 10 8 9 9 9 4 1 6 9 9 9 10 10 8 1 1 2 1 1 1 1 1 0 1